User: anonymous   Login
Location: Unspecified
(0.0000°N, 0.0000°E)
Time: 13:48:51
(UTC+00:00)
Language:

DNEPR OBJECT AD - Orbit

View from above orbital plane
View from above orbital plane
View from above satellite
View from above satellite

Ground track
Ground track

The orbit data is extracted from the following two-line orbital elements,

1 39443U 13066AD  17114.74922277 +.00002452 +00000-0 +23381-3 0  9996
2 39443 097.6597 181.5312 0025643 036.7832 323.5142 14.94019756184355
Epoch (UTC): 24 April 2017 17:58:52
Eccentricity: 0.0025643
inclination: 97.6597°
perigee height: 567 km
apogee height: 603 km
right ascension of ascending node: 181.5312°
argument of perigee: 36.7832°
revolutions per day: 14.94019756
mean anomaly at epoch: 323.5142°
orbit number at epoch: 18435

The dashed part of the orbit path shows where the satellite is in the earth's shadow,  

DLR